When you browse on this site, cookies collect data to enhance your experience and personalize the content and advertising you see.
Visit our Privacy Policy to learn more. By continuing to use the site, you agree to this use of cookies and data.
  • In Deutschland
  • Länderverzeichnis
  • Für 7 Tage
  • Wassertemperatur
  • Satellitenkarten
  • Wetterkarte
  • Widgets
  • user-avatar
    Anmelden

    Stündliche Wetter Andora

    Heute, 20 Januar, Sonntag

    Zeit Temperatur Niederschläge Wind Luftdruck Luftfeuchtigkeit
    00:00 -3°C° 0 mm 1 m/S 615 mmHg 81%
    01:00 -2°C° 0.2 mm 1 m/S 615 mmHg 84%
    02:00 -2°C° 0.2 mm 1 m/S 615 mmHg 87%
    03:00 -2°C° 0.2 mm 1 m/S 614 mmHg 91%
    04:00 -2°C° 0.1 mm 1 m/S 615 mmHg 89%
    05:00 -2°C° 0.1 mm 1 m/S 615 mmHg 87%
    06:00 -2°C° 0 mm 1 m/S 615 mmHg 83%
    07:00 -1°C° 0.1 mm 1 m/S 615 mmHg 78%
    08:00 -1°C° 0.1 mm 1 m/S 616 mmHg 74%
    09:00 -2°C° 0.1 mm 2 m/S 616 mmHg 69%
    10:00 -1°C° 0 mm 2 m/S 617 mmHg 64%
    11:00 +1°C° 0 mm 2 m/S 617 mmHg 58%
    12:00 0°C° 0 mm 3 m/S 618 mmHg 53%
    13:00 +1°C° 0 mm 2 m/S 618 mmHg 56%
    14:00 +1°C° 0 mm 2 m/S 617 mmHg 59%
    15:00 -1°C° 0 mm 2 m/S 617 mmHg 62%
    16:00 -2°C° 0.1 mm 2 m/S 617 mmHg 70%
    17:00 -3°C° 0.1 mm 2 m/S 617 mmHg 78%
    18:00 -5°C° 0.1 mm 2 m/S 617 mmHg 86%
    19:00 -5°C° 0.1 mm 2 m/S 617 mmHg 87%
    20:00 -5°C° 0.1 mm 2 m/S 618 mmHg 88%
    21:00 -6°C° 0.1 mm 3 m/S 618 mmHg 89%
    22:00 -5°C° 0.1 mm 2 m/S 618 mmHg 89%
    23:00 -5°C° 0.1 mm 2 m/S 618 mmHg 88%

    Morgen, 21 Januar, Montag

    Zeit Temperatur Niederschläge Wind Luftdruck Luftfeuchtigkeit
    00:00 -5°C° 0.1 mm 2 m/S 618 mmHg 88%
    01:00 -5°C° 0.1 mm 2 m/S 618 mmHg 89%
    02:00 -5°C° 0.1 mm 2 m/S 618 mmHg 89%
    03:00 -6°C° 0.1 mm 2 m/S 618 mmHg 89%
    04:00 -6°C° 0.1 mm 2 m/S 619 mmHg 89%
    05:00 -6°C° 0.1 mm 2 m/S 619 mmHg 88%
    06:00 -6°C° 0.1 mm 2 m/S 619 mmHg 88%
    07:00 -6°C° 0.1 mm 3 m/S 619 mmHg 84%
    08:00 -6°C° 0.1 mm 3 m/S 620 mmHg 80%
    09:00 -5°C° 0.1 mm 3 m/S 620 mmHg 76%
    10:00 -4°C° 0.1 mm 3 m/S 621 mmHg 71%
    11:00 -4°C° 0.1 mm 3 m/S 621 mmHg 66%
    12:00 -2°C° 0.1 mm 3 m/S 621 mmHg 61%
    13:00 -2°C° 0 mm 3 m/S 621 mmHg 62%
    14:00 -2°C° 0 mm 3 m/S 621 mmHg 62%
    15:00 -4°C° 0 mm 3 m/S 621 mmHg 63%
    16:00 -5°C° 0 mm 3 m/S 620 mmHg 70%
    17:00 -7°C° 0 mm 3 m/S 620 mmHg 77%
    18:00 -8°C° 0 mm 2 m/S 619 mmHg 84%
    19:00 -8°C° 0 mm 2 m/S 619 mmHg 83%
    20:00 -8°C° 0 mm 2 m/S 619 mmHg 83%
    21:00 -9°C° 0 mm 2 m/S 619 mmHg 82%
    22:00 -9°C° 0 mm 2 m/S 619 mmHg 79%
    23:00 -9°C° 0 mm 2 m/S 619 mmHg 76%

    übermorgen, 22 Januar, Dienstag

    Zeit Temperatur Niederschläge Wind Luftdruck Luftfeuchtigkeit
    00:00 -10°C° 0 mm 2 m/S 619 mmHg 72%
    01:00 -10°C° 0 mm 2 m/S 618 mmHg 67%
    02:00 -10°C° 0 mm 2 m/S 618 mmHg 62%
    03:00 -10°C° 0 mm 2 m/S 617 mmHg 57%
    04:00 -10°C° 0 mm 2 m/S 617 mmHg 54%
    05:00 -10°C° 0 mm 2 m/S 617 mmHg 50%
    06:00 -10°C° 0 mm 2 m/S 616 mmHg 46%
    07:00 -8°C° 0 mm 2 m/S 617 mmHg 45%
    08:00 -6°C° 0 mm 1 m/S 617 mmHg 43%
    09:00 -3°C° 0 mm 1 m/S 617 mmHg 42%
    10:00 -2°C° 0 mm 1 m/S 617 mmHg 40%
    11:00 0°C° 0 mm 1 m/S 617 mmHg 38%
    12:00 +1°C° 0 mm 1 m/S 617 mmHg 36%
    13:00 +1°C° 0.2 mm 1 m/S 616 mmHg 47%
    14:00 0°C° 0.2 mm 1 m/S 615 mmHg 57%
    15:00 -1°C° 0.2 mm 1 m/S 614 mmHg 67%
    16:00 -4°C° 0.6 mm 2 m/S 614 mmHg 72%
    17:00 -4°C° 0.6 mm 2 m/S 613 mmHg 77%
    18:00 -6°C° 0.6 mm 3 m/S 613 mmHg 82%
    19:00 -6°C° 0.2 mm 3 m/S 613 mmHg 83%
    20:00 -6°C° 0.2 mm 2 m/S 612 mmHg 85%
    21:00 -6°C° 0.2 mm 2 m/S 612 mmHg 86%
    22:00 -6°C° 0.4 mm 2 m/S 612 mmHg 85%
    23:00 -6°C° 0.4 mm 2 m/S 612 mmHg 85%

    23 Januar, Mittwoch

    Zeit Temperatur Niederschläge Wind Luftdruck Luftfeuchtigkeit
    00:00 -6°C° 0.4 mm 2 m/S 612 mmHg 84%
    01:00 -6°C° 0.9 mm 2 m/S 612 mmHg 85%
    02:00 -6°C° 0.9 mm 2 m/S 611 mmHg 86%
    03:00 -6°C° 0.9 mm 2 m/S 611 mmHg 87%
    04:00 -6°C° 1.1 mm 2 m/S 610 mmHg 89%
    05:00 -7°C° 1.1 mm 2 m/S 609 mmHg 91%
    06:00 -6°C° 1.1 mm 1 m/S 608 mmHg 94%
    07:00 -7°C° 1.6 mm 2 m/S 608 mmHg 93%
    08:00 -6°C° 1.6 mm 2 m/S 608 mmHg 93%
    09:00 -7°C° 1.6 mm 3 m/S 608 mmHg 92%
    10:00 -8°C° 1.4 mm 4 m/S 608 mmHg 91%
    11:00 -10°C° 1.4 mm 5 m/S 608 mmHg 90%
    12:00 -10°C° 1.4 mm 5 m/S 608 mmHg 88%
    13:00 -10°C° 0.6 mm 6 m/S 608 mmHg 88%
    14:00 -11°C° 0.6 mm 6 m/S 607 mmHg 87%
    15:00 -13°C° 0.6 mm 7 m/S 607 mmHg 86%
    16:00 -13°C° 0.4 mm 7 m/S 607 mmHg 87%
    17:00 -14°C° 0.4 mm 7 m/S 608 mmHg 87%
    18:00 -14°C° 0.4 mm 7 m/S 608 mmHg 87%
    19:00 -14°C° 0.4 mm 7 m/S 609 mmHg 88%
    20:00 -15°C° 0.4 mm 7 m/S 609 mmHg 88%
    21:00 -15°C° 0.4 mm 7 m/S 610 mmHg 89%
    22:00 -15°C° 0.5 mm 7 m/S 610 mmHg 89%
    23:00 -15°C° 0.5 mm 6 m/S 611 mmHg 89%

    24 Januar, Donnerstag

    Zeit Temperatur Niederschläge Wind Luftdruck Luftfeuchtigkeit
    00:00 -15°C° 0.5 mm 6 m/S 611 mmHg 89%
    01:00 -15°C° 0.6 mm 6 m/S 611 mmHg 88%
    02:00 -15°C° 0.6 mm 6 m/S 611 mmHg 88%
    03:00 -15°C° 0.6 mm 6 m/S 611 mmHg 87%
    04:00 -15°C° 0.4 mm 6 m/S 612 mmHg 87%
    05:00 -15°C° 0.4 mm 6 m/S 612 mmHg 86%
    06:00 -15°C° 0.4 mm 6 m/S 612 mmHg 86%
    07:00 -15°C° 0.1 mm 6 m/S 613 mmHg 84%
    08:00 -14°C° 0.1 mm 6 m/S 613 mmHg 83%
    09:00 -13°C° 0.1 mm 5 m/S 614 mmHg 81%
    10:00 -12°C° 0 mm 6 m/S 614 mmHg 79%
    11:00 -11°C° 0 mm 6 m/S 615 mmHg 77%
    12:00 -10°C° 0 mm 6 m/S 615 mmHg 74%
    13:00 -10°C° 0 mm 6 m/S 615 mmHg 73%
    14:00 -10°C° 0 mm 5 m/S 616 mmHg 72%
    15:00 -10°C° 0 mm 5 m/S 616 mmHg 71%
    16:00 -11°C° 0 mm 5 m/S 616 mmHg 75%
    17:00 -13°C° 0 mm 5 m/S 616 mmHg 80%
    18:00 -14°C° 0 mm 4 m/S 616 mmHg 84%
    19:00 -14°C° 0 mm 4 m/S 616 mmHg 82%
    20:00 -14°C° 0 mm 4 m/S 616 mmHg 80%
    21:00 -14°C° 0 mm 4 m/S 617 mmHg 78%
    22:00 -12°C° 0 mm 4 m/S 617 mmHg 75%
    23:00 -12°C° 0 mm 4 m/S 618 mmHg 73%

    25 Januar, Freitag

    Zeit Temperatur Niederschläge Wind Luftdruck Luftfeuchtigkeit
    00:00 -11°C° 0 mm 4 m/S 618 mmHg 70%
    01:00 -10°C° 0 mm 4 m/S 618 mmHg 75%
    02:00 -9°C° 0 mm 4 m/S 619 mmHg 80%
    03:00 -8°C° 0 mm 4 m/S 619 mmHg 86%
    04:00 -7°C° 0.2 mm 4 m/S 619 mmHg 87%
    05:00 -5°C° 0.2 mm 4 m/S 619 mmHg 88%
    06:00 -4°C° 0.2 mm 4 m/S 620 mmHg 89%
    07:00 -3°C° 0.2 mm 4 m/S 620 mmHg 89%
    08:00 -2°C° 0.2 mm 4 m/S 621 mmHg 88%
    09:00 -1°C° 0.2 mm 5 m/S 622 mmHg 87%
    10:00 -1°C° 0.1 mm 5 m/S 622 mmHg 87%
    11:00 0°C° 0.1 mm 5 m/S 622 mmHg 86%
    12:00 0°C° 0.1 mm 5 m/S 622 mmHg 86%
    13:00 0°C° 0.1 mm 5 m/S 622 mmHg 86%
    14:00 0°C° 0.1 mm 5 m/S 622 mmHg 86%
    15:00 0°C° 0.1 mm 4 m/S 622 mmHg 86%
    16:00 -1°C° 0 mm 4 m/S 622 mmHg 88%
    17:00 -2°C° 0 mm 4 m/S 622 mmHg 90%
    18:00 -2°C° 0 mm 4 m/S 622 mmHg 92%
    19:00 -2°C° 0 mm 4 m/S 622 mmHg 92%
    20:00 -2°C° 0 mm 3 m/S 622 mmHg 92%
    21:00 -2°C° 0 mm 3 m/S 623 mmHg 92%
    22:00 -2°C° 0 mm 3 m/S 622 mmHg 92%
    23:00 -4°C° 0 mm 3 m/S 622 mmHg 92%
    Mehr zeigen